Simultaneous Nadir Overpasses (SNOs) Predictions

Prediction of SNOs between GOES-17 and NOAA-20 Satellite Orbit:

Table of predicted SNOs for the next 14.0 days since TLE Epoch: 4/27/2024
Index Date Time (GOES-17) GOES-17 Lat,Lon NOAA-20 Lat,Lon Distance(km) Time Diff (sec)
1 04/27/2024 08:19:18 0.00,-104.70 -0.19,-103.88 94.52 80
2 04/29/2024 20:25:06 -0.00,-104.69 -0.01,-104.64 6.29 80
3 05/02/2024 08:28:05 0.00,-104.69 0.15,-105.37 77.19 80
4 05/03/2024 08:06:39 0.00,-104.69 -0.84,-100.83 439.47 80
5 05/04/2024 20:28:33 -0.00,-104.68 -0.31,-106.14 165.47 80
6 05/05/2024 20:12:27 -0.00,-104.68 0.70,-101.60 351.49 80
7 05/07/2024 08:34:12 -0.00,-104.69 0.48,-106.86 247.42 80
8 05/08/2024 08:12:46 -0.00,-104.69 -0.53,-102.33 269.25 80
9 05/09/2024 20:34:39 0.01,-104.68 -0.65,-107.62 336.05 80
10 05/10/2024 20:18:32 0.02,-104.67 0.37,-103.09 180.68 80
